FW3030 Weather Reports


Display with metric or nautical units.
time (UTC)temp
F
wind
direction
speed
MPH
gust
MPH
rain 1hr
in
rain 24hr
in
rain mn
in
humidity
%
barometer
mb
20220525201058 52 72 2.0 9.0 0.00 0.05 0.05 86 1014.0
20220525200600 52 38 3.0 9.0 0.00 0.05 0.05 84 1014.0
20220525200103 52 30 2.0 7.0 0.00 0.05 0.05 83 1014.2
20220525195604 52 27 2.0 10.0 0.00 0.05 0.05 83 1014.3
20220525195057 52 44 3.0 10.0 0.00 0.05 0.05 82 1014.4
20220525194604 52 68 3.0 11.0 0.00 0.05 0.05 81 1014.3
20220525194057 53 32 1.0 11.0 0.00 0.05 0.05 82 1014.3
20220525193557 52 20 3.0 10.0 0.00 0.05 0.05 81 1014.2
20220525193108 52 29 3.0 7.0 0.00 0.05 0.05 82 1014.4
20220525192559 52 63 3.0 9.0 0.00 0.05 0.05 82 1014.4
20220525192100 52 355 2.0 9.0 0.00 0.05 0.05 82 1014.5
20220525191610 52 67 4.0 9.0 0.00 0.05 0.05 82 1014.5
20220525191059 52 27 2.0 9.0 0.00 0.05 0.05 82 1014.6
20220525190558 52 36 3.0 10.0 0.00 0.05 0.05 82 1014.8
20220525190105 52 37 1.0 10.0 0.00 0.05 0.05 83 1014.9
20220525185556 52 27 3.0 8.0 0.00 0.05 0.05 82 1015.0
20220525185059 52 37 3.0 10.0 0.00 0.05 0.05 83 1015.2
20220525184606 52 18 3.0 11.0 0.00 0.05 0.05 83 1015.2
20220525184056 51 352 4.0 11.0 0.00 0.05 0.05 83 1015.2
20220525183600 52 28 3.0 9.0 0.00 0.05 0.05 82 1015.2
20220525183104 52 24 3.0 9.0 0.00 0.05 0.05 83 1015.2
20220525182556 52 34 3.0 9.0 0.00 0.05 0.05 83 1015.3
20220525182057 52 29 3.0 11.0 0.00 0.05 0.05 83 1015.4
20220525181606 52 40 3.0 11.0 0.00 0.05 0.05 83 1015.6
20220525181058 52 41 3.0 7.0 0.00 0.05 0.05 83 1015.7
20220525180558 51 51 2.0 7.0 0.00 0.05 0.05 84 1015.8
20220525180103 51 15 2.0 6.0 0.00 0.05 0.05 84 1015.9
20220525175558 51 44 2.0 8.0 0.00 0.05 0.05 83 1015.9
20220525175057 51 77 2.0 8.0 0.00 0.05 0.05 83 1016.2
20220525174606 51 34 2.0 8.0 0.00 0.05 0.05 83 1016.3
20220525174059 51 360 2.0 8.0 0.00 0.05 0.05 83 1016.3
20220525173557 51 40 2.0 7.0 0.00 0.05 0.05 83 1016.3
20220525173104 51 53 2.0 8.0 0.00 0.05 0.05 83 1016.3
20220525172557 51 59 3.0 8.0 0.00 0.05 0.05 82 1016.4
20220525172100 51 0 3.0 8.0 0.00 0.05 0.05 83 1016.5
20220525171604 51 22 3.0 7.0 0.00 0.05 0.05 82 1016.6
20220525171058 51 27 2.0 10.0 0.00 0.05 0.05 83 1016.6
20220525170557 51 76 3.0 10.0 0.00 0.05 0.05 82 1016.6
20220525170108 51 51 3.0 10.0 0.00 0.05 0.05 83 1016.8
20220525165600 51 49 2.0 5.0 0.00 0.05 0.05 83 1016.9
20220525165057 51 37 2.0 11.0 0.00 0.05 0.05 83 1016.7
20220525164601 51 43 3.0 11.0 0.00 0.05 0.05 83 1016.8
20220525164100 51 39 3.0 8.0 0.00 0.05 0.05 83 1016.8
20220525163557 51 38 3.0 8.0 0.00 0.05 0.05 83 1016.9
20220525163104 51 38 2.0 8.0 0.00 0.05 0.05 84 1016.8
20220525162556 51 38 2.0 8.0 0.00 0.05 0.05 84 1017.0
20220525162153 51 352 2.0 7.0 0.00 0.05 0.05 83 1017.1
20220525161610 51 32 2.0 7.0 0.00 0.05 0.05 83 1017.2
20220525161100 51 52 3.0 8.0 0.00 0.05 0.05 83 1017.3
20220525160600 51 115 2.0 8.0 0.00 0.05 0.05 83 1017.3
20220525160109 51 69 3.0 8.0 0.00 0.05 0.05 83 1017.4
20220525155600 51 40 3.0 11.0 0.00 0.05 0.05 83 1017.5
20220525155059 51 47 3.0 11.0 0.00 0.05 0.05 83 1017.5
20220525154603 51 30 3.0 11.0 0.00 0.05 0.05 83 1017.6
20220525154058 51 75 3.0 11.0 0.00 0.05 0.05 83 1017.6
20220525153559 51 88 2.0 9.0 0.00 0.05 0.05 83 1017.7
20220525153107 51 13 2.0 7.0 0.00 0.05 0.05 83 1017.8
20220525152557 51 80 2.0 10.0 0.00 0.05 0.05 83 1017.8
20220525152059 51 113 3.0 10.0 0.00 0.05 0.05 83 1017.8
20220525151606 51 285 3.0 10.0 0.00 0.05 0.05 83 1017.9
20220525151100 51 111 2.0 10.0 0.00 0.05 0.05 83 1018.0
20220525150601 51 38 3.0 10.0 0.00 0.05 0.05 83 1018.1
20220525150114 51 87 3.0 8.0 0.00 0.05 0.05 83 1018.2
20220525145557 51 30 2.0 7.0 0.00 0.05 0.05 83 1018.2
20220525145100 51 99 2.0 10.0 0.00 0.05 0.05 84 1018.3
20220525144607 51 61 3.0 10.0 0.00 0.05 0.05 84 1018.3
20220525144103 51 34 2.0 10.0 0.00 0.05 0.05 84 1018.4
20220525143601 50 32 3.0 10.0 0.00 0.05 0.05 84 1018.6
20220525143105 51 5 2.0 6.0 0.00 0.05 0.05 85 1018.6
20220525142600 50 37 2.0 5.0 0.00 0.05 0.05 85 1018.6
20220525142058 50 19 2.0 7.0 0.00 0.05 0.05 85 1018.8
20220525141604 50 113 2.0 7.0 0.00 0.05 0.05 85 1018.9
20220525141101 50 52 1.0 7.0 0.00 0.05 0.05 85 1018.9
20220525140558 50 49 2.0 7.0 0.00 0.05 0.05 85 1018.9
20220525140108 50 104 2.0 7.0 0.00 0.05 0.05 85 1019.0
20220525135600 50 39 2.0 7.0 0.00 0.05 0.05 85 1019.2
20220525135059 50 88 2.0 9.0 0.00 0.05 0.05 86 1019.1
20220525134611 50 69 2.0 9.0 0.00 0.05 0.05 85 1019.2
20220525134101 50 25 2.0 8.0 0.00 0.05 0.05 85 1019.2
20220525133558 50 33 2.0 9.0 0.00 0.05 0.05 85 1019.2
20220525133106 50 71 2.0 9.0 0.00 0.05 0.05 86 1019.2
20220525132557 50 63 1.0 8.0 0.00 0.05 0.05 86 1019.2
20220525132101 50 84 2.0 8.0 0.00 0.05 0.05 86 1019.2
20220525131612 50 83 1.0 6.0 0.00 0.05 0.05 86 1019.2
20220525131105 50 40 2.0 9.0 0.00 0.05 0.05 86 1019.2
20220525130557 50 45 2.0 9.0 0.00 0.05 0.05 85 1019.0
20220525130104 50 105 2.0 9.0 0.00 0.05 0.05 86 1019.1
20220525125558 50 93 2.0 8.0 0.00 0.05 0.05 86 1018.9
20220525125100 50 32 2.0 8.0 0.00 0.05 0.05 86 1018.9
20220525124616 50 11 2.0 14.0 0.00 0.05 0.05 86 1018.9
20220525124056 50 43 4.0 14.0 0.00 0.05 0.05 85 1018.8
20220525123558 50 69 2.0 6.0 0.00 0.05 0.05 86 1018.8
20220525123102 50 26 2.0 7.0 0.00 0.05 0.05 86 1018.9
20220525122600 50 47 1.0 7.0 0.00 0.05 0.05 86 1018.8
20220525122057 50 24 1.0 6.0 0.00 0.05 0.05 86 1018.7
20220525121604 50 24 1.0 8.0 0.00 0.05 0.05 87 1018.7
20220525121100 50 65 2.0 8.0 0.01 0.05 0.05 87 1018.9
20220525120557 50 75 2.0 5.0 0.01 0.05 0.05 87 1019.1
20220525120115 50 114 1.0 7.0 0.01 0.05 0.05 87 1019.1
20220525115559 50 36 2.0 7.0 0.02 0.05 0.05 87 1019.1
20220525115058 49 96 2.0 6.0 0.02 0.05 0.05 87 1018.9
20220525114608 49 0 2.0 5.0 0.02 0.05 0.05 87 1018.9
20220525114057 49 19 1.0 7.0 0.02 0.05 0.05 87 1019.1
20220525113557 49 23 2.0 7.0 0.02 0.05 0.05 87 1019.2
20220525113100 49 350 1.0 4.0 0.02 0.05 0.05 88 1019.3
20220525112600 49 53 1.0 4.0 0.02 0.05 0.05 87 1019.3
20220525112058 49 17 1.0 4.0 0.02 0.05 0.05 88 1019.3
20220525111614 49 34 1.0 8.0 0.02 0.05 0.05 88 1019.3
20220525111059 49 0 2.0 8.0 0.01 0.04 0.04 87 1019.4
20220525110556 50 81 1.0 5.0 0.02 0.04 0.04 87 1019.5
20220525110109 50 80 1.0 5.0 0.02 0.04 0.04 87 1019.5
20220525105558 50 40 1.0 5.0 0.01 0.03 0.03 86 1019.6
20220525105105 50 24 2.0 8.0 0.01 0.03 0.03 86 1019.6
20220525104604 50 0 2.0 8.0 0.02 0.03 0.03 87 1019.6
20220525104057 50 31 1.0 6.0 0.02 0.03 0.03 88 1019.7
20220525103601 50 24 2.0 6.0 0.02 0.03 0.03 88 1019.7
20220525103103 50 98 1.0 3.0 0.03 0.03 0.03 88 1019.7
20220525102557 50 41 0.0 4.0 0.03 0.03 0.03 88 1019.7
20220525102056 50 0 0.0 6.0 0.03 0.03 0.03 88 1019.6
20220525101604 50 84 1.0 8.0 0.03 0.03 0.03 88 1019.7
20220525101100 51 86 2.0 8.0 0.03 0.03 0.03 88 1019.6
20220525100600 51 46 1.0 7.0 0.02 0.02 0.02 89 1019.6
20220525100105 51 0 1.0 4.0 0.02 0.02 0.02 89 1019.5
20220525095559 51 117 1.0 7.0 0.02 0.02 0.02 89 1019.5
20220525095103 51 80 2.0 7.0 0.02 0.02 0.02 88 1019.5
20220525094602 51 52 0.0 2.0 0.01 0.01 0.01 88 1019.5
20220525094101 51 0 0.0 2.0 0.01 0.01 0.01 87 1019.6
20220525093604 52 48 0.0 2.0 0.01 0.01 0.01 87 1019.6
20220525093103 52 0 0.0 2.0 0.00 0.00 0.00 85 1019.7
20220525092600 52 0 0.0 2.0 0.00 0.00 0.00 84 1019.7
20220525092101 52 0 0.0 2.0 0.00 0.00 0.00 82 1019.7
20220525091604 53 0 0.0 4.0 0.00 0.00 0.00 80 1019.7
20220525091106 53 0 1.0 6.0 0.00 0.00 0.00 77 1019.7
20220525090600 54 64 2.0 6.0 0.00 0.00 0.00 75 1019.8
20220525090141 54 154 1.0 4.0 0.00 0.00 0.00 73 1019.8
20220525085559 54 119 1.0 5.0 0.00 0.00 0.00 71 1019.8
20220525085100 55 113 1.0 5.0 0.00 0.00 0.00 68 1019.8
20220525084611 55 143 2.0 5.0 0.00 0.00 0.00 65 1019.8
20220525084103 55 141 2.0 7.0 0.00 0.00 0.00 63 1019.7
20220525083601 55 182 2.0 7.0 0.00 0.00 0.00 63 1019.8
20220525083106 56 226 2.0 6.0 0.00 0.00 0.00 61 1019.7
20220525082603 56 136 2.0 4.0 0.00 0.00 0.00 59 1019.7
20220525082101 56 134 1.0 3.0 0.00 0.00 0.00 58 1019.6
20220525081613 56 0 1.0 3.0 0.00 0.00 0.00 59 1019.5
20220525081059 55 95 0.0 1.0 0.00 0.00 0.00 60 1019.5
20220525080600 55 0 0.0 2.0 0.00 0.00 0.00 59 1019.5
20220525080108 55 0 0.0 2.0 0.00 0.00 0.00 60 1019.5
20220525075603 55 62 0.0 2.0 0.00 0.00 0.00 59 1019.3
20220525075100 55 0 0.0 2.0 0.00 0.00 0.00 60 1019.3
20220525074604 55 0 0.0 2.0 0.00 0.00 0.00 60 1019.3
20220525074103 55 62 0.0 1.0 0.00 0.00 0.00 59 1019.4
20220525073600 55 0 0.0 1.0 0.00 0.00 0.00 59 1019.2
20220525073102 55 0 0.0 2.0 0.00 0.00 0.00 59 1019.2
20220525072606 55 0 0.0 2.0 0.00 0.00 0.00 58 1019.3
20220525072100 55 33 0.0 2.0 0.00 0.00 0.00 58 1019.3
20220525071606 56 37 0.0 2.0 0.00 0.00 0.00 57 1019.3
20220525071100 56 37 0.0 2.0 0.00 0.00 0.00 57 1019.3
20220525070603 56 38 0.0 2.0 0.00 0.00 0.00 56 1019.2
20220525070111 56 0 0.0 2.0 0.00 0.00 0.00 57 1019.2
20220525065600 56 0 0.0 2.0 0.00 0.00 0.00 56 1019.3
20220525065057 56 51 0.0 2.0 0.00 0.00 0.00 57 1019.4
20220525064609 56 51 0.0 2.0 0.00 0.00 0.00 55 1019.3
20220525064058 56 51 0.0 2.0 0.00 0.00 0.00 56 1019.3
20220525063558 55 0 0.0 1.0 0.00 0.00 0.00 57 1019.5
20220525063102 56 0 0.0 1.0 0.00 0.00 0.00 57 1019.5
20220525062603 56 0 0.0 1.0 0.00 0.00 0.00 56 1019.5
20220525062103 56 0 0.0 2.0 0.00 0.00 0.00 55 1019.5
20220525061600 56 0 0.0 2.0 0.00 0.00 0.00 55 1019.5
20220525061104 56 0 0.0 1.0 0.00 0.00 0.00 55 1019.6
20220525060602 56 0 0.0 1.0 0.00 0.00 0.00 56 1019.6
20220525060103 56 0 0.0 1.0 0.00 0.00 0.00 56 1019.6
20220525055559 56 0 0.0 1.0 0.00 0.00 0.00 54 1019.7
20220525055101 57 87 0.0 1.0 0.00 0.00 0.00 52 1019.6
20220525054608 56 88 0.0 0.0 0.00 0.00 0.00 53 1019.7
20220525054104 57 0 0.0 0.0 0.00 0.00 0.00 52 1019.8
20220525053600 57 0 0.0 0.0 0.00 0.00 0.00 51 1019.8
20220525053103 57 0 0.0 0.0 0.00 0.00 0.00 50 1019.9
20220525052556 57 0 0.0 0.0 0.00 0.00 0.00 49 1020.0
20220525052058 57 0 0.0 0.0 0.00 0.00 0.00 50 1020.0
20220525051601 57 0 0.0 1.0 0.00 0.00 0.00 49 1020.0
20220525051059 58 0 0.0 1.0 0.00 0.00 0.00 49 1020.0
20220525050555 58 0 0.0 1.0 0.00 0.00 0.00 48 1020.1
20220525050105 58 0 0.0 1.0 0.00 0.00 0.00 48 1020.0
20220525045558 57 0 0.0 1.0 0.00 0.00 0.00 50 1020.1
20220525045101 57 0 0.0 1.0 0.00 0.00 0.00 50 1020.0
20220525044602 57 0 0.0 1.0 0.00 0.00 0.00 50 1020.0
20220525044101 57 0 0.0 1.0 0.00 0.00 0.00 51 1020.0
20220525043557 57 0 0.0 0.0 0.00 0.00 0.00 50 1020.0
20220525043059 58 0 0.0 0.0 0.00 0.00 0.00 50 1020.0
20220525042558 58 0 0.0 1.0 0.00 0.00 0.00 50 1020.0
20220525042102 58 0 0.0 1.0 0.00 0.00 0.00 48 1020.2
20220525041600 59 0 0.0 2.0 0.00 0.00 0.00 48 1020.2
20220525041056 59 0 0.0 2.0 0.00 0.00 0.00 46 1020.2
20220525040556 59 0 0.0 1.0 0.00 0.00 0.00 47 1020.1
20220525040103 59 0 0.0 2.0 0.00 0.00 0.00 48 1020.1
20220525035555 59 0 0.0 2.0 0.00 0.00 0.00 48 1020.2
20220525035100 59 0 0.0 1.0 0.00 0.00 0.00 47 1020.3
20220525034603 59 0 0.0 1.0 0.00 0.00 0.00 48 1020.4
20220525034059 58 0 0.0 1.0 0.00 0.00 0.00 48 1020.3
20220525033558 59 0 0.0 3.0 0.00 0.00 0.00 48 1020.3
20220525033106 59 0 0.0 3.0 0.00 0.00 0.00 48 1020.4
20220525032556 58 0 0.0 1.0 0.00 0.00 0.00 48 1020.4
20220525032058 58 0 0.0 1.0 0.00 0.00 0.00 49 1020.4
20220525031606 58 0 0.0 0.0 0.00 0.00 0.00 49 1020.3
20220525031058 58 0 0.0 0.0 0.00 0.00 0.00 49 1020.4
20220525030559 58 0 0.0 0.0 0.00 0.00 0.00 48 1020.4
20220525030107 58 0 0.0 0.0 0.00 0.00 0.00 48 1020.3
20220525025556 58 0 0.0 0.0 0.00 0.00 0.00 49 1020.2
20220525025058 59 0 0.0 0.0 0.00 0.00 0.00 47 1020.1
20220525024600 59 0 0.0 0.0 0.00 0.00 0.00 47 1020.1
20220525024056 59 0 0.0 0.0 0.00 0.00 0.00 46 1020.1
20220525023559 59 0 0.0 0.0 0.00 0.00 0.00 45 1020.1
20220525023104 59 0 0.0 0.0 0.00 0.00 0.00 46 1020.2
20220525022556 60 0 0.0 0.0 0.00 0.00 0.00 46 1020.2
20220525022058 60 0 0.0 0.0 0.00 0.00 0.00 45 1020.3
20220525021605 60 0 0.0 0.0 0.00 0.00 0.00 42 1020.3
20220525021056 61 0 0.0 1.0 0.00 0.00 0.00 41 1020.3
20220525020557 61 0 0.0 2.0 0.00 0.00 0.00 40 1020.2
20220525020111 61 0 0.0 2.0 0.00 0.00 0.00 40 1020.3
20220525015558 62 0 0.0 2.0 0.00 0.00 0.00 39 1020.3
20220525015059 62 0 0.0 2.0 0.00 0.00 0.00 39 1020.3
20220525014612 62 0 0.0 2.0 0.00 0.00 0.00 39 1020.3
20220525014100 62 0 0.0 2.0 0.00 0.00 0.00 39 1020.3
20220525013556 62 102 0.0 3.0 0.00 0.00 0.00 38 1020.3
20220525013118 63 0 0.0 4.0 0.00 0.00 0.00 37 1020.3
20220525012557 63 80 1.0 4.0 0.00 0.00 0.00 36 1020.3
20220525012058 63 101 0.0 2.0 0.00 0.00 0.00 37 1020.4
20220525011600 63 0 0.0 3.0 0.00 0.00 0.00 37 1020.3
20220525011100 64 0 0.0 3.0 0.00 0.00 0.00 35 1020.3
20220525010558 64 102 1.0 3.0 0.00 0.00 0.00 35 1020.3
20220525010107 64 75 0.0 6.0 0.00 0.00 0.00 36 1020.3
20220525005556 64 72 1.0 6.0 0.00 0.00 0.00 36 1020.2
20220525005057 64 121 0.0 7.0 0.00 0.00 0.00 37 1020.2
20220525004611 64 78 1.0 7.0 0.00 0.00 0.00 35 1020.2
20220525004057 64 63 1.0 4.0 0.00 0.00 0.00 37 1020.3
20220525003556 64 98 1.0 4.0 0.00 0.00 0.00 35 1020.3
20220525003102 65 128 0.0 7.0 0.00 0.00 0.00 34 1020.2
20220525002559 65 91 2.0 7.0 0.00 0.00 0.00 33 1020.3
20220525002057 65 107 1.0 6.0 0.00 0.00 0.00 32 1020.2
20220525001610 65 26 2.0 6.0 0.00 0.00 0.00 33 1020.2
20220525001059 65 116 1.0 5.0 0.00 0.00 0.00 37 1020.1
20220525000559 65 78 1.0 5.0 0.00 0.00 0.00 36 1020.1
20220525000109 65 0 1.0 3.0 0.00 0.00 0.00 34 1020.1
20220524235557 65 132 1.0 3.0 0.00 0.00 0.00 36 1020.1
20220524235056 65 84 1.0 3.0 0.00 0.00 0.00 37 1020.1
20220524234608 66 126 0.0 5.0 0.00 0.00 0.00 33 1020.1
20220524234056 66 86 1.0 9.0 0.00 0.00 0.00 34 1020.0
20220524233558 66 123 3.0 9.0 0.00 0.00 0.00 31 1020.1
20220524233109 66 62 2.0 5.0 0.00 0.00 0.00 33 1020.0
20220524232601 67 34 1.0 6.0 0.00 0.00 0.00 35 1020.0
20220524232104 67 127 2.0 8.0 0.00 0.00 0.00 33 1020.1
20220524231612 66 103 2.0 8.0 0.00 0.00 0.00 32 1020.1
20220524231105 66 109 1.0 7.0 0.00 0.00 0.00 31 1020.1
20220524230559 66 93 3.0 7.0 0.00 0.00 0.00 33 1020.1
20220524230100 67 71 1.0 7.0 0.00 0.00 0.00 32 1020.2
20220524225559 67 119 2.0 7.0 0.00 0.00 0.00 34 1020.3
20220524225057 67 135 2.0 8.0 0.00 0.00 0.00 34 1020.1
20220524224612 67 119 2.0 8.0 0.00 0.00 0.00 35 1020.2
20220524224057 67 104 2.0 4.0 0.00 0.00 0.00 34 1020.3
20220524223559 68 47 1.0 8.0 0.00 0.00 0.00 38 1020.3
20220524223107 68 82 2.0 9.0 0.00 0.00 0.00 32 1020.3
20220524222601 68 119 2.0 9.0 0.00 0.00 0.00 31 1020.3
20220524222057 68 135 3.0 9.0 0.00 0.00 0.00 31 1020.1
20220524221610 68 24 2.0 9.0 0.00 0.00 0.00 35 1020.2
20220524221057 68 59 2.0 9.0 0.00 0.00 0.00 33 1020.2
20220524220555 68 72 3.0 8.0 0.00 0.00 0.00 35 1020.2
20220524220114 69 117 3.0 8.0 0.00 0.00 0.00 34 1020.2
20220524215557 68 38 2.0 6.0 0.00 0.00 0.00 38 1020.3
20220524215058 68 87 3.0 6.0 0.00 0.00 0.00 33 1020.3
20220524214615 68 39 2.0 6.0 0.00 0.00 0.00 37 1020.3
20220524214058 68 104 2.0 7.0 0.00 0.00 0.00 35 1020.3
20220524213605 68 130 2.0 10.0 0.00 0.00 0.00 35 1020.3
20220524213109 69 97 2.0 10.0 0.00 0.00 0.00 36 1020.3
20220524212557 69 120 2.0 9.0 0.00 0.00 0.00 34 1020.3
20220524212059 69 57 3.0 9.0 0.00 0.00 0.00 34 1020.3
20220524211625 69 33 2.0 10.0 0.00 0.00 0.00 36 1020.3
20220524211057 68 360 3.0 10.0 0.00 0.00 0.00 37 1020.4
20220524210604 68 39 3.0 9.0 0.00 0.00 0.00 35 1020.5
20220524210113 68 304 4.0 9.0 0.00 0.00 0.00 38 1020.5
20220524205603 68 148 2.0 8.0 0.00 0.00 0.00 34 1020.5
20220524205102 68 159 2.0 8.0 0.00 0.00 0.00 34 1020.7
20220524204612 68 142 3.0 8.0 0.00 0.00 0.00 34 1020.7
20220524204058 68 46 2.0 9.0 0.00 0.00 0.00 35 1020.8
20220524203604 69 99 2.0 9.0 0.00 0.00 0.00 35 1020.9
20220524203108 68 360 2.0 7.0 0.00 0.00 0.00 37 1021.0
20220524202601 68 144 1.0 9.0 0.00 0.00 0.00 40 1021.0
20220524202059 68 131 2.0 11.0 0.00 0.00 0.00 36 1021.0
20220524201604 69 35 2.0 11.0 0.00 0.00 0.00 35 1021.1